Location: Unspecified
(40.7945°N, 111.1337°W)
Time: 12:25:55
(UTC-06:00)

Okean 3 - Pass Details

Date: 30 March 2019
Orbit: 576 x 602 km, 82.5° (Epoch: 20 April)

Event Time Altitude Azimuth Distance (km) Brightness Sun altitude
Exits shadow 06:37:55 - 262° (W) 2,039 5.5 -7.1°
Reaches altitude 10° 06:38:30 10° 270° (W) 1,942 5.5 -7.0°
Maximum altitude 06:40:05 12° 291° (WNW) 1,830 5.5 -6.7°
Drops below altitude 10° 06:41:40 10° 313° (NW) 1,947 5.8 -6.4°
Sets 06:45:21 0° 346° (NNW) 2,853 6.9 -5.8°
